timestamp,wind_dir_avg,wind_spd_avg,wind_spd_max_dir,wind_spd_gust,battery_voltage,lat,long
2021-04-30 00:04:01+00:00,222.0,2.48,239.0,2.81,12.97,47.59359,-54.27349
2021-04-30 00:14:01+00:00,240.0,2.99,243.0,3.34,12.57,47.59359,-54.27349
2021-04-30 00:24:01+00:00,218.0,1.67,220.0,1.85,12.57,47.59359,-54.27349
2021-04-30 00:34:01+00:00,185.0,1.36,186.0,1.45,12.57,47.59359,-54.27349
2021-04-30 00:44:01+00:00,198.0,2.6,199.0,2.72,12.57,47.59359,-54.27349
2021-04-30 00:54:01+00:00,205.0,2.55,205.0,2.69,12.57,47.59359,-54.27349
2021-04-30 01:04:01+00:00,177.0,2.49,181.0,2.74,12.57,47.59359,-54.27349
2021-04-30 01:14:01+00:00,178.0,2.59,178.0,2.71,12.57,47.59359,-54.27349
2021-04-30 01:24:01+00:00,212.0,2.95,218.0,3.32,12.57,47.59359,-54.27349
2021-04-30 01:34:01+00:00,233.0,3.15,232.0,3.48,12.57,47.59359,-54.27349
2021-04-30 01:44:01+00:00,242.0,3.74,246.0,4.59,12.57,47.59359,-54.27349
2021-04-30 01:54:01+00:00,227.0,2.98,231.0,3.64,12.57,47.59359,-54.27349
2021-04-30 02:04:01+00:00,248.0,3.99,248.0,4.26,12.57,47.59359,-54.27349
2021-04-30 02:14:00+00:00,255.0,3.94,258.0,4.17,12.49,47.59359,-54.27349
2021-04-30 02:24:00+00:00,260.0,3.54,262.0,3.83,12.49,47.59359,-54.27349
2021-04-30 02:34:00+00:00,248.0,2.59,249.0,2.93,12.49,47.59359,-54.27349
2021-04-30 02:44:00+00:00,246.0,2.98,247.0,3.21,12.49,47.59359,-54.27349
2021-04-30 02:54:00+00:00,248.0,3.07,247.0,3.27,12.49,47.59359,-54.27349
2021-04-30 03:04:00+00:00,261.0,2.24,263.0,2.49,12.49,47.59359,-54.27349
2021-04-30 03:14:00+00:00,253.0,1.75,254.0,1.97,12.49,47.59359,-54.27349
2021-04-30 03:24:00+00:00,321.0,0.96,321.0,1.08,12.49,47.59359,-54.27349
2021-04-30 03:34:00+00:00,7.0,1.27,0.0,1.57,12.49,47.59359,-54.27349
2021-04-30 03:44:00+00:00,325.0,2.49,325.0,2.77,12.49,47.59359,-54.27349
2021-04-30 03:54:00+00:00,309.0,1.93,301.0,2.39,12.49,47.59359,-54.27349
2021-04-30 04:04:00+00:00,272.0,1.18,275.0,1.27,12.49,47.59359,-54.27349
2021-04-30 04:14:01+00:00,244.0,1.72,247.0,1.81,12.49,47.59359,-54.27349
2021-04-30 04:24:01+00:00,238.0,1.54,238.0,1.69,12.49,47.59359,-54.27349
2021-04-30 04:34:01+00:00,225.0,1.22,227.0,1.36,12.49,47.59359,-54.27349
2021-04-30 04:44:01+00:00,234.0,1.53,234.0,1.63,12.49,47.59359,-54.27349
2021-04-30 04:54:01+00:00,171.0,0.8,170.0,1.12,12.49,47.59359,-54.27349
2021-04-30 05:04:01+00:00,150.0,1.5,161.0,1.89,12.49,47.59359,-54.27349
2021-04-30 05:14:00+00:00,148.0,1.91,145.0,2.05,12.41,47.59359,-54.27349
2021-04-30 05:24:00+00:00,189.0,1.28,195.0,1.49,12.41,47.59359,-54.27349
2021-04-30 05:34:00+00:00,230.0,1.76,230.0,1.91,12.41,47.59359,-54.27349
2021-04-30 05:44:00+00:00,204.0,1.52,205.0,1.69,12.41,47.59359,-54.27349
2021-04-30 05:54:00+00:00,230.0,1.68,233.0,1.81,12.41,47.59359,-54.27349
2021-04-30 06:04:00+00:00,243.0,1.82,238.0,2.07,12.41,47.59359,-54.27349
2021-04-30 06:14:00+00:00,253.0,1.47,257.0,1.86,12.41,47.59359,-54.27349
2021-04-30 06:24:00+00:00,229.0,1.56,233.0,1.72,12.41,47.59359,-54.27349
2021-04-30 06:34:00+00:00,219.0,1.3,227.0,1.47,12.41,47.59359,-54.27349
2021-04-30 06:44:00+00:00,231.0,2.71,234.0,2.98,12.41,47.59359,-54.27349
2021-04-30 06:54:00+00:00,212.0,1.85,213.0,2.03,12.41,47.59359,-54.27349
2021-04-30 07:04:00+00:00,227.0,1.81,227.0,1.99,12.41,47.59359,-54.27349
2021-04-30 07:14:00+00:00,225.0,2.06,223.0,2.25,12.41,47.59359,-54.27349
2021-04-30 07:24:00+00:00,232.0,1.41,233.0,1.62,12.41,47.59359,-54.27349
2021-04-30 07:34:00+00:00,235.0,2.6,241.0,2.98,12.41,47.59359,-54.27349
2021-04-30 07:44:00+00:00,230.0,3.14,233.0,4.0,12.41,47.59359,-54.27349
2021-04-30 07:54:00+00:00,231.0,4.24,229.0,5.06,12.41,47.59359,-54.27349
2021-04-30 08:04:00+00:00,224.0,4.29,226.0,4.96,12.41,47.59359,-54.27349
2021-04-30 08:14:00+00:00,226.0,3.24,219.0,3.84,12.33,47.59359,-54.27349
2021-04-30 08:24:00+00:00,223.0,3.06,222.0,3.47,12.33,47.59359,-54.27349
2021-04-30 08:34:00+00:00,189.0,1.82,192.0,2.02,12.33,47.59359,-54.27349
2021-04-30 08:44:00+00:00,207.0,1.6,216.0,1.8,12.33,47.59359,-54.27349
2021-04-30 08:54:00+00:00,220.0,3.03,217.0,3.39,12.33,47.59359,-54.27349
2021-04-30 09:04:00+00:00,216.0,1.78,219.0,2.0,12.33,47.59359,-54.27349
2021-04-30 09:14:00+00:00,194.0,1.87,197.0,2.12,12.33,47.59359,-54.27349
2021-04-30 09:24:00+00:00,198.0,2.59,199.0,2.88,12.33,47.59359,-54.27349
2021-04-30 09:34:00+00:00,204.0,2.48,209.0,2.81,12.33,47.59359,-54.27349
2021-04-30 09:44:00+00:00,205.0,2.19,205.0,2.4,12.33,47.59359,-54.27349
2021-04-30 09:54:00+00:00,223.0,2.98,223.0,3.25,12.33,47.59359,-54.27349
2021-04-30 10:04:00+00:00,212.0,1.92,207.0,2.15,12.33,47.59359,-54.27349
2021-04-30 10:14:01+00:00,220.0,2.87,222.0,3.12,12.57,47.59359,-54.27349
2021-04-30 10:24:01+00:00,221.0,2.67,219.0,2.93,12.57,47.59359,-54.27349
2021-04-30 10:34:01+00:00,227.0,2.37,230.0,2.75,12.57,47.59359,-54.27349
2021-04-30 10:44:01+00:00,255.0,2.01,252.0,2.24,12.57,47.59359,-54.27349
2021-04-30 10:54:01+00:00,241.0,3.03,245.0,3.49,12.57,47.59359,-54.27349
2021-04-30 11:04:01+00:00,237.0,2.59,238.0,2.85,12.57,47.59359,-54.27349
2021-04-30 11:14:01+00:00,233.0,2.75,240.0,3.46,13.29,47.59359,-54.27349
2021-04-30 11:24:01+00:00,227.0,2.12,223.0,2.38,13.29,47.59359,-54.27349
2021-04-30 11:34:01+00:00,193.0,1.8,194.0,2.06,13.29,47.59359,-54.27349
2021-04-30 11:44:01+00:00,196.0,1.53,200.0,1.64,13.29,47.59359,-54.27349
2021-04-30 11:54:01+00:00,201.0,1.63,205.0,1.81,13.29,47.59359,-54.27349
2021-04-30 12:04:01+00:00,211.0,3.24,210.0,3.85,13.29,47.59359,-54.27349
2021-04-30 12:14:01+00:00,202.0,2.88,200.0,3.5,13.6,47.59359,-54.27349
2021-04-30 12:24:01+00:00,200.0,3.44,197.0,4.0,13.6,47.59359,-54.27349
2021-04-30 12:34:01+00:00,195.0,2.97,193.0,3.88,13.6,47.59359,-54.27349
2021-04-30 12:44:01+00:00,195.0,2.95,194.0,3.47,13.6,47.59359,-54.27349
2021-04-30 12:54:01+00:00,207.0,2.66,202.0,2.95,13.6,47.59359,-54.27349
2021-04-30 13:04:01+00:00,206.0,2.46,208.0,2.64,13.6,47.59359,-54.27349
2021-04-30 13:14:01+00:00,203.0,3.21,204.0,3.4,13.76,47.59359,-54.27349
2021-04-30 13:24:01+00:00,212.0,3.11,209.0,3.56,13.76,47.59359,-54.27349
2021-04-30 13:34:01+00:00,220.0,3.99,222.0,4.41,13.76,47.59359,-54.27349
2021-04-30 13:44:01+00:00,216.0,5.04,218.0,5.65,13.76,47.59359,-54.27349
2021-04-30 13:54:01+00:00,216.0,4.99,216.0,5.52,13.76,47.59359,-54.27349
2021-04-30 14:04:01+00:00,211.0,4.32,203.0,5.83,13.76,47.59359,-54.27349
2021-04-30 14:14:01+00:00,208.0,5.82,207.0,6.38,13.76,47.59359,-54.27349
2021-04-30 14:24:01+00:00,218.0,4.45,218.0,4.72,13.76,47.59359,-54.27349
2021-04-30 14:34:01+00:00,215.0,4.26,217.0,4.61,13.76,47.59359,-54.27349
2021-04-30 14:44:01+00:00,206.0,4.23,210.0,4.65,13.76,47.59359,-54.27349
2021-04-30 14:54:01+00:00,209.0,3.87,210.0,4.35,13.76,47.59359,-54.27349
2021-04-30 15:04:01+00:00,209.0,3.8,211.0,3.98,13.76,47.59359,-54.27349
2021-04-30 15:14:01+00:00,204.0,3.32,212.0,3.69,14.32,47.59359,-54.27349
2021-04-30 15:24:01+00:00,217.0,3.52,217.0,3.95,14.32,47.59359,-54.27349
2021-04-30 15:34:01+00:00,216.0,4.11,218.0,4.46,14.32,47.59359,-54.27349
2021-04-30 15:44:01+00:00,216.0,3.3,213.0,3.81,14.32,47.59359,-54.27349
2021-04-30 15:54:01+00:00,213.0,3.56,218.0,3.92,14.32,47.59359,-54.27349
2021-04-30 16:04:01+00:00,223.0,3.09,224.0,3.5,14.32,47.59359,-54.27349
2021-04-30 16:14:01+00:00,218.0,3.72,220.0,4.08,14.08,47.59359,-54.27349
2021-04-30 16:24:01+00:00,218.0,3.61,213.0,4.16,14.08,47.59359,-54.27349
2021-04-30 16:34:01+00:00,216.0,3.13,216.0,3.38,14.08,47.59359,-54.27349
2021-04-30 16:44:01+00:00,218.0,1.52,216.0,1.8,14.08,47.59359,-54.27349
2021-04-30 16:54:01+00:00,215.0,1.96,216.0,2.13,14.08,47.59359,-54.27349
2021-04-30 17:04:01+00:00,208.0,1.26,212.0,1.41,14.08,47.59359,-54.27349
2021-04-30 17:14:01+00:00,213.0,1.7,211.0,1.81,13.76,47.59359,-54.27349
2021-04-30 17:24:01+00:00,213.0,1.89,221.0,2.12,13.76,47.59359,-54.27349
2021-04-30 17:34:01+00:00,216.0,2.34,215.0,2.48,13.76,47.59359,-54.27349
2021-04-30 17:44:01+00:00,223.0,2.6,225.0,2.96,13.76,47.59359,-54.27349
2021-04-30 17:54:01+00:00,223.0,1.79,221.0,2.07,13.76,47.59359,-54.27349
2021-04-30 18:04:01+00:00,221.0,2.61,218.0,2.74,13.76,47.59359,-54.27349
2021-04-30 18:14:01+00:00,199.0,1.53,202.0,1.69,13.76,47.59359,-54.27349
2021-04-30 18:24:01+00:00,215.0,1.47,221.0,1.66,13.76,47.59359,-54.27349
2021-04-30 18:34:01+00:00,221.0,2.34,219.0,2.53,13.76,47.59359,-54.27349
2021-04-30 18:44:01+00:00,221.0,2.35,221.0,2.55,13.76,47.59359,-54.27349
2021-04-30 18:54:01+00:00,212.0,3.43,212.0,3.7,13.76,47.59359,-54.27349
2021-04-30 19:04:01+00:00,221.0,2.71,216.0,3.02,13.76,47.59359,-54.27349
2021-04-30 19:14:01+00:00,201.0,4.13,199.0,4.48,13.92,47.59359,-54.27349
2021-04-30 19:24:01+00:00,203.0,5.03,201.0,5.4,13.92,47.59359,-54.27349
2021-04-30 19:34:01+00:00,202.0,5.24,201.0,5.76,13.92,47.59359,-54.27349
2021-04-30 19:44:01+00:00,197.0,5.5,201.0,6.18,13.92,47.59359,-54.27349
2021-04-30 19:54:01+00:00,205.0,5.45,206.0,5.88,13.92,47.59359,-54.27349
2021-04-30 20:04:01+00:00,191.0,3.88,194.0,4.31,13.92,47.59359,-54.27349
2021-04-30 20:14:01+00:00,189.0,3.61,191.0,4.01,13.68,47.59359,-54.27349
2021-04-30 20:24:01+00:00,188.0,4.43,185.0,4.87,13.68,47.59359,-54.27349
2021-04-30 20:34:01+00:00,183.0,3.69,185.0,4.0,13.68,47.59359,-54.27349
2021-04-30 20:44:01+00:00,186.0,3.79,185.0,4.07,13.68,47.59359,-54.27349
2021-04-30 20:54:01+00:00,147.0,2.53,147.0,2.74,13.68,47.59359,-54.27349
2021-04-30 21:04:01+00:00,171.0,1.77,172.0,2.11,13.68,47.59359,-54.27349
2021-04-30 21:14:01+00:00,164.0,0.79,165.0,0.94,13.44,47.59359,-54.27349
2021-04-30 21:24:01+00:00,55.0,1.4,54.0,1.55,13.44,47.59359,-54.27349
2021-04-30 21:34:01+00:00,40.0,0.87,34.0,1.13,13.44,47.59359,-54.27349
2021-04-30 21:44:01+00:00,358.0,0.58,354.0,0.62,13.44,47.59359,-54.27349
2021-04-30 21:54:01+00:00,5.0,0.54,4.0,0.64,13.44,47.59359,-54.27349
2021-04-30 22:04:01+00:00,30.0,1.33,28.0,1.45,13.44,47.59359,-54.27349
2021-04-30 22:14:01+00:00,37.0,2.53,36.0,2.66,12.89,47.59359,-54.27349
2021-04-30 22:24:01+00:00,38.0,3.17,37.0,3.49,12.89,47.59359,-54.27349
2021-04-30 22:34:01+00:00,42.0,3.26,45.0,3.57,12.89,47.59359,-54.27349
2021-04-30 22:44:01+00:00,44.0,2.39,38.0,2.9,12.89,47.59359,-54.27349
2021-04-30 22:54:01+00:00,55.0,3.44,60.0,4.08,12.89,47.59359,-54.27349
2021-04-30 23:04:01+00:00,56.0,3.22,56.0,3.6,12.89,47.59359,-54.27349
2021-04-30 23:14:01+00:00,76.0,3.63,93.0,4.99,12.57,47.59359,-54.27349
2021-04-30 23:24:01+00:00,82.0,3.14,92.0,4.7,12.57,47.59359,-54.27349
2021-04-30 23:34:01+00:00,96.0,3.84,95.0,6.43,12.57,47.59359,-54.27349
2021-04-30 23:44:01+00:00,88.0,3.98,100.0,7.84,12.57,47.59359,-54.27349
2021-04-30 23:54:01+00:00,96.0,4.13,80.0,7.04,12.57,47.59359,-54.27349
